Notices

What's New in latest Release from April 7th, 2021:

- Updated Glossary, including Speed of Maximum Gust, and Total Hourly Precipitation

- Updated national and regional climate services offices contacts and prices information

- Addition of station inventory lists for 1981-2010, 1971-2000, and 1961-1990 Normals.

If you haven't already, please take our survey and provide feedback about our website: https://eccc.sondage-survey.ca/f/LanguageSelection.aspx?s=442ca660-fcf1-47c0-95a9-59707d6fd709

Hourly Data Report for July 21, 2016

TORONTO CITY
ONTARIO

43°40'00.000" N
79°24'00.000" W
112.50 m
6158355
71508
XTO

Download Data

Hourly Data (July 2016)
Hourly Data Report for July 21, 2016
TIME
LST
Temp Definition
°C
Dew Point Definition
°C
Rel Hum Definition
%
Precip. Amount Definition
mm

Wind Dir Definition
10's deg

Wind Spd Definition
km/h
Visibility Definition
km
Stn Press Definition
kPa
Hmdx Definition


Wind Chill Definition


Weather Definition


00:00 20.2 14.3 69 0.0 LegendMM LegendMM   100.65     LegendNANA
01:00 19.9 13.6 67 0.0 LegendMM LegendMM   100.62     LegendNANA
02:00 19.7 14.1 71 0.0 LegendMM LegendMM   100.64     LegendNANA
03:00 19.1 13.6 70 0.0 LegendMM LegendMM   100.68     LegendNANA
04:00 19.4 13.7 69 0.0 LegendMM LegendMM   100.63     LegendNANA
05:00 18.8 13.8 73 0.0 LegendMM LegendMM   100.66     LegendNANA
06:00 18.9 14.3 75 0.0 LegendMM LegendMM   100.67     LegendNANA
07:00 21.5 13.9 62 0.0 LegendMM LegendMM   100.63 25   LegendNANA
08:00 23.5 14.3 56 0.0 LegendMM LegendMM   100.63 27   LegendNANA
09:00 24.8 15.4 56 0.0 LegendMM LegendMM   100.59 29   LegendNANA
10:00 26.1 15.4 52 0.0 LegendMM LegendMM   100.52 30   LegendNANA
11:00 27.6 15.8 49 0.0 LegendMM LegendMM   100.48 32   LegendNANA
12:00 29.4 14.7 41 0.0 LegendMM LegendMM   100.46 33   LegendNANA
13:00 30.7 15.2 39 0.0 LegendMM LegendMM   100.34 35   LegendNANA
14:00 30.2 15.0 40 0.0 LegendMM LegendMM   100.25 34   LegendNANA
15:00 30.4 14.8 39 0.0 LegendMM LegendMM   100.20 34   LegendNANA
16:00 29.4 17.6 49 0.0 LegendMM LegendMM   100.05 35   LegendNANA
17:00 28.4 17.9 53 0.0 LegendMM LegendMM   100.00 34   LegendNANA
18:00 28.4 18.3 54 0.0 LegendMM LegendMM   99.96 35   LegendNANA
19:00 27.7 18.4 57 0.0 LegendMM LegendMM   99.88 34   LegendNANA
20:00 27.1 19.5 63 0.0 LegendMM LegendMM   99.88 34   LegendNANA
21:00 26.9 19.8 65 0.0 LegendMM LegendMM   99.88 34   LegendNANA
22:00 25.5 19.3 69 0.0 LegendMM LegendMM   99.82 33   LegendNANA
23:00 24.3 19.2 73 0.0 LegendMM LegendMM   99.78 31   LegendNANA

Notes on Data Quality.

Legend

  • E = Estimated
  • M = Missing
  • NA = Not Available*
  • [empty] = Indicates an unobserved value
Date modified: